TimeCST,TemperatureF,Dew PointF,Humidity,Sea Level PressureIn,VisibilityMPH,Wind Direction,Wind SpeedMPH,Gust SpeedMPH,PrecipitationIn,Events,Conditions,WindDirDegrees,DateUTC
12:01 AM,32.0,32.0,100,29.95,3.0,North,5.8,-,0.00,Snow,Light Snow,10,2013-02-13 06:01:00
12:53 AM,32.0,32.0,100,29.96,6.0,North,5.8,-,0.01,Snow,Light Snow,360,2013-02-13 06:53:00
1:53 AM,33.1,33.1,100,29.97,10.0,NNW,8.1,-,0.00,,Overcast,340,2013-02-13 07:53:00
2:53 AM,32.0,32.0,100,29.96,7.0,NNW,8.1,-,0.00,Snow,Light Snow,340,2013-02-13 08:53:00
3:16 AM,32.0,32.0,100,29.95,5.0,NNW,9.2,-,0.00,Snow,Light Snow,340,2013-02-13 09:16:00
3:53 AM,32.0,32.0,100,29.96,6.0,NNW,8.1,-,0.00,,Overcast,340,2013-02-13 09:53:00
4:37 AM,32.0,32.0,100,29.95,5.0,Calm,Calm,-,N/A,,Overcast,0,2013-02-13 10:37:00
4:53 AM,33.1,33.1,100,29.96,6.0,Calm,Calm,-,N/A,,Overcast,0,2013-02-13 10:53:00
5:13 AM,33.8,33.8,100,29.96,6.0,WNW,8.1,-,N/A,,Overcast,300,2013-02-13 11:13:00
5:27 AM,32.0,32.0,100,29.96,5.0,NW,6.9,-,N/A,,Overcast,310,2013-02-13 11:27:00
5:53 AM,32.0,32.0,100,29.98,4.0,West,4.6,-,N/A,,Overcast,280,2013-02-13 11:53:00
6:19 AM,32.0,32.0,100,29.97,2.0,West,5.8,-,N/A,,Overcast,280,2013-02-13 12:19:00
6:29 AM,32.0,32.0,100,29.97,1.2,WNW,5.8,-,N/A,,Overcast,290,2013-02-13 12:29:00
6:42 AM,32.0,32.0,100,29.98,0.8,West,8.1,-,N/A,,Mist,280,2013-02-13 12:42:00
6:53 AM,32.0,32.0,100,30.01,0.5,West,8.1,-,N/A,Fog,Fog,270,2013-02-13 12:53:00
7:15 AM,32.0,32.0,100,29.99,0.2,West,5.8,-,N/A,Fog,Fog,260,2013-02-13 13:15:00
7:23 AM,32.0,32.0,100,30.00,0.2,West,5.8,-,N/A,Fog,Fog,280,2013-02-13 13:23:00
7:42 AM,32.0,32.0,100,30.00,1.0,West,5.8,-,N/A,,Mist,270,2013-02-13 13:42:00
7:53 AM,33.1,33.1,100,30.03,0.8,WSW,6.9,-,N/A,,Overcast,240,2013-02-13 13:53:00
8:03 AM,33.8,33.8,100,30.01,1.0,West,6.9,-,N/A,,Overcast,260,2013-02-13 14:03:00
8:29 AM,33.8,33.8,100,30.01,2.5,WSW,6.9,-,N/A,,Overcast,240,2013-02-13 14:29:00
8:36 AM,33.8,33.8,100,30.01,3.0,WSW,9.2,-,N/A,,Overcast,250,2013-02-13 14:36:00
8:53 AM,34.0,34.0,100,30.03,7.0,WSW,9.2,-,N/A,,Overcast,250,2013-02-13 14:53:00
9:39 AM,35.6,35.6,100,30.00,6.0,WSW,10.4,-,N/A,,Overcast,240,2013-02-13 15:39:00
9:53 AM,35.1,35.1,100,30.02,8.0,WSW,12.7,-,N/A,,Mostly Cloudy,240,2013-02-13 15:53:00
10:24 AM,37.4,35.6,93,30.00,10.0,West,11.5,-,N/A,,Mostly Cloudy,260,2013-02-13 16:24:00
10:53 AM,39.9,36.0,86,30.02,10.0,WSW,12.7,18.4,N/A,,Mostly Cloudy,240,2013-02-13 16:53:00
11:15 AM,39.2,35.6,87,30.00,10.0,WSW,12.7,-,N/A,,Mostly Cloudy,250,2013-02-13 17:15:00
11:53 AM,42.1,36.0,79,30.01,10.0,WSW,11.5,-,N/A,,Mostly Cloudy,240,2013-02-13 17:53:00
12:18 PM,42.8,35.6,76,29.98,10.0,WSW,13.8,-,N/A,,Partly Cloudy,240,2013-02-13 18:18:00
12:53 PM,45.0,36.0,71,29.99,10.0,WSW,11.5,-,N/A,,Partly Cloudy,250,2013-02-13 18:53:00
1:53 PM,48.0,32.0,54,29.96,10.0,West,13.8,20.7,N/A,,Clear,280,2013-02-13 19:53:00
2:53 PM,48.9,30.9,50,29.95,10.0,West,12.7,18.4,N/A,,Clear,280,2013-02-13 20:53:00
3:53 PM,48.9,30.9,50,29.94,10.0,West,12.7,-,N/A,,Clear,280,2013-02-13 21:53:00
4:53 PM,48.0,30.9,52,29.94,10.0,WSW,6.9,-,N/A,,Clear,250,2013-02-13 22:53:00
5:53 PM,45.0,32.0,60,29.95,10.0,SW,5.8,-,N/A,,Clear,230,2013-02-13 23:53:00
6:53 PM,42.1,32.0,67,29.95,10.0,SW,5.8,-,N/A,,Clear,220,2013-02-14 00:53:00
7:53 PM,41.0,32.0,70,29.96,10.0,SW,6.9,-,N/A,,Clear,230,2013-02-14 01:53:00
8:53 PM,39.9,30.9,70,29.96,10.0,SW,5.8,-,N/A,,Clear,220,2013-02-14 02:53:00
9:53 PM,39.0,30.9,73,29.96,10.0,SSW,8.1,-,N/A,,Clear,210,2013-02-14 03:53:00
10:53 PM,37.9,30.9,76,29.97,10.0,SW,6.9,-,N/A,,Clear,220,2013-02-14 04:53:00
11:53 PM,37.9,30.9,76,29.96,10.0,SW,6.9,-,N/A,,Clear,230,2013-02-14 05:53:00